Search the data

BODC Cruise Metadata Report for FRV Scotia (749S) cruise 1996S

Introduction

This report collates information from the BODC cruise inventory and oceanographic databases. It presents

Cruise Inventory Information

Long name FRV Scotia (749S) cruise 1996S
Short name 1996S
Objectives and Narrative To carry out a combined acoustic, trawling and CTD survey on the western mackerel stock immediately prior to and during the start of the spawing migration. This study is to be carried out as part of the EC funded AIR program SEFOS (Project code C514).
Ship FRV Scotia
Departure Port Aberdeen, United Kingdom
Departure Date 1996-11-29
Arrival Port Aberdeen, United Kingdom
Arrival Date 1996-12-18
Principal Scientist(s) David G Reid (Scottish Office Agriculture Environment and Fisheries Department Aberdeen Marine Laboratory)
Responsible Organisation
Associated Project(s) Air SEFOS
IHB Sea Areas Visited North Sea
Marsden Squares Visited 216;3/252;1
Work Area Description North Sea, Viking Bank
Work Area Bounding Polygon 55N,0E; 65N,0E; 65N,5E; 55N,5E; 55N,0E
Southern Limit 55N
Northern Limit 65N
Western Limit 0E
Eastern Limit 5E

Cruise Inventory Datasets

Physical oceanography  
CTD stations Quantity: number of stations = 67
Description: SeaBird CTD  
Current profiler (eg ADCP) Description: VM ADCP  
Subsurface temperature and salinity measurements Description: T and S at 3m, throughout  
Biology and fisheries  
Pelagic fish Description: Trawls  
Geology and geophysics  
Multi-beam echosounding Description:  

Cruise Inventory Mooring/Buoy Operations

Latitude Longitude Data type Description
60° 28' N 3° 13' E Current meters Depl. 2 ACM 30.11.96. LOST. Surface buoy only recovered adrift

Summary of BODC Data Holdings for the Cruise

National Oceanographic Database

Summary

# Series Instrument Description Parameters
62 CTD/STD cast Electrical conductivity of the water column
Salinity of the water column
Temperature of the water column
Vertical spatial coordinates

Note: Parameter terms are taken from the BODC Parameter Discovery Vocabulary XML (SKOS)

Full List

BODC Reference Instrument Description Date/Time Location  
468821 CTD/STD cast 1996-12-02 22:28Z 59° 4' N, 3° 41' E Click for more
468833 CTD/STD cast 1996-12-02 23:36Z 59° 4' N, 3° 37' E Click for more
468845 CTD/STD cast 1996-12-03 00:14Z 59° 4' N, 3° 33' E Click for more
468857 CTD/STD cast 1996-12-03 00:57Z 59° 4' N, 3° 29' E Click for more
468869 CTD/STD cast 1996-12-03 01:30Z 59° 4' N, 3° 25' E Click for more
468870 CTD/STD cast 1996-12-03 02:03Z 59° 4' N, 3° 22' E Click for more
468882 CTD/STD cast 1996-12-03 02:35Z 59° 4' N, 3° 18' E Click for more
468894 CTD/STD cast 1996-12-03 03:05Z 59° 4' N, 3° 14' E Click for more
468901 CTD/STD cast 1996-12-03 03:33Z 59° 4' N, 3° 10' E Click for more
468913 CTD/STD cast 1996-12-05 18:25Z 61° 14' N, 2° 54' E Click for more
468925 CTD/STD cast 1996-12-05 19:19Z 61° 12' N, 2° 48' E Click for more
468937 CTD/STD cast 1996-12-05 20:25Z 61° 9' N, 2° 43' E Click for more
468949 CTD/STD cast 1996-12-05 21:20Z 61° 7' N, 2° 37' E Click for more
468950 CTD/STD cast 1996-12-05 22:18Z 61° 4' N, 2° 31' E Click for more
468962 CTD/STD cast 1996-12-05 23:05Z 61° 1' N, 2° 25' E Click for more
468974 CTD/STD cast 1996-12-05 23:47Z 60° 59' N, 2° 19' E Click for more
468986 CTD/STD cast 1996-12-06 00:37Z 60° 57' N, 2° 13' E Click for more
468998 CTD/STD cast 1996-12-06 01:16Z 60° 54' N, 2° 8' E Click for more
469001 CTD/STD cast 1996-12-06 01:56Z 60° 52' N, 2° 3' E Click for more
469013 CTD/STD cast 1996-12-11 14:10Z 60° 43' N, 2° 26' E Click for more
469025 CTD/STD cast 1996-12-11 14:50Z 60° 45' N, 2° 33' E Click for more
469037 CTD/STD cast 1996-12-11 15:31Z 60° 46' N, 2° 40' E Click for more
469049 CTD/STD cast 1996-12-11 16:11Z 60° 49' N, 2° 47' E Click for more
469050 CTD/STD cast 1996-12-11 16:39Z 60° 50' N, 2° 50' E Click for more
469062 CTD/STD cast 1996-12-11 17:30Z 60° 51' N, 2° 54' E Click for more
469074 CTD/STD cast 1996-12-11 18:10Z 60° 52' N, 2° 57' E Click for more
469086 CTD/STD cast 1996-12-11 18:56Z 60° 52' N, 3° 1' E Click for more
469098 CTD/STD cast 1996-12-11 19:51Z 60° 55' N, 3° 7' E Click for more
469105 CTD/STD cast 1996-12-11 20:46Z 60° 57' N, 3° 15' E Click for more
469117 CTD/STD cast 1996-12-11 21:42Z 60° 58' N, 3° 22' E Click for more
469129 CTD/STD cast 1996-12-14 14:31Z 61° 39' N, 2° 10' E Click for more
469130 CTD/STD cast 1996-12-14 15:21Z 61° 36' N, 2° 4' E Click for more
469142 CTD/STD cast 1996-12-14 16:12Z 61° 34' N, 1° 57' E Click for more
469154 CTD/STD cast 1996-12-14 17:05Z 61° 32' N, 1° 51' E Click for more
469166 CTD/STD cast 1996-12-14 18:19Z 61° 30' N, 1° 48' E Click for more
469178 CTD/STD cast 1996-12-15 07:10Z 61° 29' N, 1° 45' E Click for more
469191 CTD/STD cast 1996-12-15 07:53Z 61° 28' N, 1° 41' E Click for more
469209 CTD/STD cast 1996-12-15 08:23Z 61° 27' N, 1° 38' E Click for more
469210 CTD/STD cast 1996-12-15 09:02Z 61° 25' N, 1° 31' E Click for more
469222 CTD/STD cast 1996-12-15 09:37Z 61° 22' N, 1° 25' E Click for more
469234 CTD/STD cast 1996-12-15 10:16Z 61° 20' N, 1° 18' E Click for more
469246 CTD/STD cast 1996-12-15 13:42Z 61° 15' N, 2° 10' E Click for more
469258 CTD/STD cast 1996-12-15 14:43Z 61° 12' N, 2° 19' E Click for more
469271 CTD/STD cast 1996-12-15 15:32Z 61° 8' N, 2° 27' E Click for more
469283 CTD/STD cast 1996-12-15 16:04Z 61° 8' N, 2° 30' E Click for more
469295 CTD/STD cast 1996-12-15 18:13Z 61° 7' N, 2° 35' E Click for more
469302 CTD/STD cast 1996-12-15 19:03Z 61° 7' N, 2° 39' E Click for more
469314 CTD/STD cast 1996-12-15 20:33Z 61° 4' N, 2° 36' E Click for more
469326 CTD/STD cast 1996-12-15 23:28Z 61° 0' N, 2° 42' E Click for more
469338 CTD/STD cast 1996-12-16 00:22Z 60° 56' N, 2° 50' E Click for more
469351 CTD/STD cast 1996-12-16 01:13Z 60° 52' N, 2° 55' E Click for more
469363 CTD/STD cast 1996-12-16 02:07Z 60° 48' N, 3° 0' E Click for more
469375 CTD/STD cast 1996-12-16 03:21Z 60° 43' N, 3° 5' E Click for more
469387 CTD/STD cast 1996-12-16 16:07Z 61° 8' N, 2° 28' E Click for more
469399 CTD/STD cast 1996-12-16 17:05Z 61° 11' N, 2° 19' E Click for more
469406 CTD/STD cast 1996-12-16 18:09Z 61° 15' N, 2° 10' E Click for more
469418 CTD/STD cast 1996-12-16 18:45Z 61° 16' N, 2° 13' E Click for more
469431 CTD/STD cast 1996-12-16 19:19Z 61° 18' N, 2° 16' E Click for more
469443 CTD/STD cast 1996-12-16 19:58Z 61° 19' N, 2° 21' E Click for more
469455 CTD/STD cast 1996-12-16 20:34Z 61° 21' N, 2° 23' E Click for more
469467 CTD/STD cast 1996-12-16 21:14Z 61° 22' N, 2° 26' E Click for more
469479 CTD/STD cast 1996-12-16 21:54Z 61° 23' N, 2° 29' E Click for more

Project Database

No data currently held for this cruise in the BODC Project Database

References

Track Charts

No track charts currently available

Reports

No reports currently available